Location: Unspecified
(0.0000°N, 0.0000°E)
Time: 13:35:59
(UTC+00:00)

Transit 4A - All Passes

Search period start: 20 July 2019 00:00
Search period end: 30 July 2019 00:00
Orbit: 862 x 982 km, 66.8° (Epoch: 19 July)

Date Brightness Start Highest point End Pass type
(mag) Time Alt. Az. Time Alt. Az. Time Alt. Az.
20 Jul - 00:47:01 10° SW 00:52:51 46° WNW 00:58:50 10° N night (unlit)
20 Jul - 11:58:54 10° NNW 12:04:54 69° ENE 12:10:44 10° SSE daylight
20 Jul - 23:11:05 10° SSE 23:16:06 26° ESE 23:21:11 10° NE night (unlit)
21 Jul - 00:57:05 10° SW 01:02:11 27° WNW 01:07:23 10° NNW night (unlit)
21 Jul - 12:08:12 10° NNW 12:14:11 69° WSW 12:20:01 10° SSE daylight
21 Jul - 23:19:34 10° S 23:25:23 44° ESE 23:31:19 10° NE night (unlit)
22 Jul - 01:07:59 10° WSW 01:11:31 16° WNW 01:15:07 10° NW night (unlit)
22 Jul - 10:33:48 10° NNE 10:37:20 16° ENE 10:40:48 10° ESE daylight
22 Jul - 12:17:55 10° NW 12:23:26 39° WSW 12:28:53 10° S daylight
22 Jul - 23:28:31 10° SSW 23:34:39 76° ESE 23:40:57 10° NNE night (unlit)
23 Jul - 10:41:38 10° NNE 10:46:41 28° ENE 10:51:36 10° SE daylight
23 Jul - 12:28:10 10° WNW 12:32:43 23° WSW 12:37:14 10° SSW daylight
23 Jul - 23:37:51 10° SSW 23:43:56 65° WNW 23:50:12 10° N night (unlit)
24 Jul - 10:50:13 10° N 10:55:59 48° ENE 11:01:37 10° SE daylight
24 Jul - 12:39:36 10° W 12:42:02 13° WSW 12:44:25 10° SW daylight
24 Jul - 22:03:04 10° SSE 22:07:12 19° ESE 22:11:22 10° ENE night (unlit)
24 Jul - 23:47:36 10° SW 23:53:15 38° WNW 23:59:03 10° N night (unlit)
25 Jul - 10:59:16 10° NNW 11:05:16 84° ENE 11:11:08 10° SSE daylight
25 Jul - 22:11:06 10° S 22:16:29 32° ESE 22:21:58 10° NE night (unlit)
25 Jul - 23:57:54 10° WSW 00:02:35 22° WNW 00:07:21 10° NNW night (unlit)
26 Jul - 09:27:17 10° ENE 09:28:23 10° ENE 09:29:27 10° E daylight
26 Jul - 11:08:41 10° NNW 11:14:32 56° WSW 11:20:16 10° S daylight
26 Jul - 22:19:46 10° S 22:25:46 54° ESE 22:31:54 10° NNE night (unlit)
27 Jul - 00:09:25 10° W 00:11:57 13° WNW 00:14:30 10° NW night (unlit)
27 Jul - 09:33:33 10° NNE 09:37:44 20° ENE 09:41:51 10° ESE daylight
27 Jul - 11:18:34 10° NW 11:23:49 32° WSW 11:28:58 10° S daylight
27 Jul - 22:28:52 10° SSW 22:35:03 89° WNW 22:41:23 10° NNE night (unlit)
28 Jul - 09:41:43 10° N 09:47:04 34° ENE 09:52:18 10° SE daylight
28 Jul - 11:29:07 10° WNW 11:33:06 18° WSW 11:37:02 10° SSW daylight
28 Jul - 20:55:41 10° SE 20:58:16 13° ESE 21:00:53 10° E night (unlit)
28 Jul - 22:38:21 10° SW 22:44:20 53° WNW 22:50:29 10° N night (unlit)
29 Jul - 09:50:28 10° N 09:56:22 59° ENE 10:02:07 10° SSE daylight
29 Jul - 21:02:52 10° SSE 21:07:35 23° ESE 21:12:22 10° ENE night (unlit)
29 Jul - 22:48:16 10° SW 22:53:39 31° WNW 22:59:10 10° N night (unlit)
